| time (UTC) | temp F | wind direction | speed MPH | gust MPH | rain 1hr in | rain 24hr in | rain mn in | humidity % | barometer mb |
| 20260505094606 | 42 | 202 | 0.0 | 0.0 | 0.00 | 0.00 | 0.00 | 96 | 1109.9 |
| 20260505093041 | 42 | 202 | 0.0 | 0.0 | 0.00 | 0.00 | 0.00 | 96 | 1109.9 |
| 20260505091540 | 42 | 202 | 0.0 | 0.0 | 0.00 | 0.00 | 0.00 | 96 | 1110.0 |
| 20260505090041 | 42 | 202 | 0.0 | 0.0 | 0.00 | 0.00 | 0.00 | 95 | 1109.8 |
| 20260505084531 | 43 | 202 | 0.0 | 0.0 | 0.00 | 0.00 | 0.00 | 95 | 1109.6 |
| 20260505081530 | 44 | 202 | 0.0 | 0.0 | 0.00 | 0.00 | 0.00 | 95 | 1109.3 |
| 20260505080107 | 44 | 202 | 0.0 | 0.0 | 0.00 | 0.00 | 0.00 | 95 | 1109.3 |
| 20260505074530 | 44 | 202 | 0.0 | 0.0 | 0.00 | 0.00 | 0.00 | 95 | 1109.2 |
| 20260505073154 | 45 | 202 | 0.0 | 0.0 | 0.00 | 0.00 | 0.00 | 95 | 1109.2 |
| 20260505073143 | 45 | 202 | 0.0 | 0.0 | 0.00 | 0.00 | 0.00 | 95 | 1109.3 |
| 20260505070033 | 45 | 202 | 0.0 | 0.0 | 0.00 | 0.00 | 0.00 | 95 | 1109.3 |
| 20260505064648 | 45 | 202 | 0.0 | 0.0 | 0.00 | 0.00 | 0.00 | 95 | 1109.3 |
| 20260505063041 | 46 | 202 | 0.0 | 0.0 | 0.00 | 0.00 | 0.00 | 95 | 1109.3 |
| 20260505061539 | 45 | 202 | 0.0 | 0.0 | 0.00 | 0.00 | 0.00 | 94 | 1109.3 |
| 20260505060149 | 46 | 202 | 0.0 | 0.0 | 0.00 | 0.00 | 0.00 | 94 | 1109.1 |
| 20260505054550 | 45 | 202 | 0.0 | 0.0 | 0.00 | 0.00 | 0.00 | 94 | 1109.0 |
| 20260505053041 | 45 | 202 | 0.0 | 0.0 | 0.00 | 0.00 | 0.00 | 93 | 1108.7 |
| 20260505051534 | 45 | 202 | 0.0 | 0.0 | 0.00 | 0.00 | 0.00 | 93 | 1108.7 |
| 20260505041533 | 46 | 202 | 0.0 | 0.0 | 0.00 | 0.00 | 0.00 | 91 | 1108.6 |
| 20260505031649 | 48 | 202 | 0.0 | 0.0 | 0.00 | 0.00 | 0.00 | 88 | 1108.9 |
| 20260505030040 | 49 | 202 | 0.0 | 0.0 | 0.00 | 0.00 | 0.00 | 88 | 1109.0 |
| 20260505023047 | 50 | 202 | 0.0 | 0.0 | 0.00 | 0.00 | 0.00 | 85 | 1108.9 |
| 20260505021540 | 51 | 202 | 0.0 | 0.0 | 0.00 | 0.00 | 0.00 | 83 | 1108.9 |
| 20260505020030 | 53 | 202 | 0.0 | 0.0 | 0.00 | 0.00 | 0.00 | 82 | 1108.8 |
| 20260505014532 | 54 | 202 | 0.0 | 0.0 | 0.00 | 0.00 | 0.00 | 80 | 1108.7 |
| 20260505013031 | 56 | 202 | 0.0 | 0.0 | 0.00 | 0.00 | 0.00 | 77 | 1108.6 |
| 20260505011539 | 58 | 202 | 0.0 | 0.0 | 0.00 | 0.00 | 0.00 | 73 | 1108.5 |
| 20260505010032 | 60 | 202 | 0.0 | 0.0 | 0.00 | 0.00 | 0.00 | 69 | 1108.4 |
| 20260505004600 | 75 | 220 | 0.0 | 2.0 | 0.00 | 0.00 | 0.00 | 45 | 1107.4 |
| 20260505004551 | 74 | 225 | 1.0 | 4.0 | 0.00 | 0.00 | 0.00 | 43 | 1107.4 |
| 20260505001603 | 35 | 337 | 0.0 | 0.0 | 0.00 | 0.00 | 0.00 | 96 | 1112.5 |
| 20260505001554 | 34 | 337 | 0.0 | 0.0 | 0.00 | 0.00 | 0.00 | 96 | 1112.5 |